1496858401.07,29463,19.0,73892.3,0.21,-3.27,-3.39,0,*4B
1496858402.26,29464,19.0,73894.5,0.19,-3.27,-3.03,0,*4E
1496858403.47,29465,19.0,73894.5,0.19,-2.91,-2.75,0,*43
1496858404.66,29466,19.0,73896.8,0.19,-2.79,-2.39,0,*4E
1496858405.84,29467,19.0,73894.8,0.19,-2.43,-2.15,0,*48
1496858407.05,29468,19.0,73896.0,0.19,-2.31,-2.11,0,*46
1496858408.29,29469,19.0,73896.5,0.19,-1.99,-2.11,0,*46
1496858409.53,29470,19.0,73896.8,0.21,-2.03,-2.15,0,*41
1496858410.79,29471,19.0,73896.0,0.21,-2.11,-2.11,0,*47
1496858412.05,29472,19.0,73894.5,0.21,-2.11,-2.11,0,*44
1496858413.26,29473,19.0,73894.3,0.21,-2.27,-2.31,0,*42
1496858414.5,29474,19.0,73894.0,0.21,-2.39,-2.51,0,*4C
1496858415.71,29475,19.0,73894.5,0.19,-2.43,-2.75,0,*4D
1496858416.91,29476,19.0,73896.3,0.19,-2.51,-2.79,0,*41
1496858418.15,29477,19.0,73896.8,0.21,-2.43,-2.75,0,*44
1496858419.41,29478,19.0,73896.0,0.21,-2.55,-2.75,0,*4C
1496858420.64,29479,19.0,73896.3,0.21,-2.67,-2.87,0,*41
1496858421.87,29480,19.0,73896.3,0.21,-2.63,-3.03,0,*4E
1496858423.05,29481,19.0,73894.3,0.23,-2.83,-3.15,0,*44
1496858424.24,29482,19.0,73898.8,0.23,-2.95,-3.35,0,*42
1496858425.44,29483,19.0,73900.3,0.23,-3.11,-3.47,0,*4B
1496858426.64,29484,19.0,73898.3,0.19,-3.19,-3.55,0,*4E
1496858427.87,29485,19.0,73898.3,0.21,-3.31,-3.55,0,*4E
1496858429.1,29486,19.0,73898.0,0.21,-3.19,-3.43,0,*40
1496858430.3,29487,19.0,73896.8,0.19,-3.19,-3.43,0,*4A
1496858431.51,29488,19.0,73898.5,0.21,-3.19,-3.19,0,*41
1496858432.72,29489,19.0,73898.3,0.21,-3.03,-3.27,0,*46
1496858433.94,29490,19.0,73896.0,0.21,-3.19,-3.51,0,*44
1496858435.17,29491,19.0,73896.5,0.21,-3.27,-3.63,0,*49
1496858436.39,29492,19.0,73898.0,0.23,-3.59,-3.79,0,*4A
1496858437.64,29493,19.0,73898.3,0.21,-3.55,-3.63,0,*4E
1496858438.86,29494,19.0,73894.8,0.19,-3.55,-3.63,0,*42
1496858440.1,29495,19.0,73892.8,0.21,-3.63,-3.75,0,*4A
1496858441.33,29496,19.0,73896.5,0.21,-3.67,-3.83,0,*44
1496858442.55,29497,19.0,73898.5,0.21,-3.83,-3.95,0,*48
1496858443.76,29498,19.0,73902.0,0.21,-3.83,-3.95,0,*47
1496858444.98,29499,19.0,73898.3,0.21,-3.91,-3.83,0,*42
1496858446.17,29500,19.0,73898.8,0.23,-3.91,-4.13,0,*4F
1496858447.35,29501,19.0,73900.0,0.19,-4.09,-4.17,0,*45
1496858448.57,29502,19.0,73898.5,0.21,-4.17,-4.21,0,*47
1496858449.78,29503,19.0,73896.8,0.21,-4.09,-4.21,0,*49
1496858450.99,29504,19.0,73896.3,0.21,-4.09,-4.21,0,*4E
1496858452.18,29505,19.0,73892.5,0.19,-3.95,-4.09,0,*4C
1496858453.4,29506,19.0,73896.3,0.21,-3.91,-3.95,0,*42
1496858454.59,29507,19.0,73894.3,0.19,-3.91,-4.09,0,*4A
1496858455.81,29508,19.0,73896.0,0.21,-3.83,-3.91,0,*4B
1496858457.03,29509,19.0,73898.8,0.21,-3.75,-3.75,0,*49
1496858458.26,29510,19.0,73898.3,0.19,-3.67,-3.67,0,*4A
1496858459.47,29511,19.0,73898.3,0.21,-3.79,-3.79,0,*40
1496858460.69,29512,19.0,73898.3,0.21,-3.83,-3.83,0,*43
1496858461.9,29513,19.0,73900.3,0.21,-3.79,-3.83,0,*47
1496858463.13,29514,19.0,73898.0,0.21,-3.67,-3.83,0,*4F
1496858464.35,29515,19.0,73900.3,0.21,-3.95,-4.21,0,*4C
1496858465.56,29516,19.0,73896.0,0.19,-3.67,-3.95,0,*41
1496858466.77,29517,19.0,73898.8,0.21,-4.05,-4.09,0,*4A
1496858467.95,29518,19.0,73896.5,0.19,-4.05,-4.17,0,*41
1496858469.16,29519,19.0,73896.8,0.21,-4.05,-4.21,0,*4E
1496858470.37,29520,19.0,73896.5,0.21,-4.09,-4.17,0,*4D
1496858471.58,29521,19.0,73898.3,0.21,-3.91,-3.83,0,*40
1496858472.77,29522,19.0,73892.8,0.19,-4.05,-3.91,0,*41
1496858473.99,29523,19.0,73896.0,0.21,-3.83,-3.79,0,*44
1496858475.18,29524,19.0,73896.8,0.19,-3.79,-3.95,0,*4F
1496858476.38,29525,19.0,73898.0,0.21,-4.05,-4.09,0,*4B
1496858477.57,29526,19.0,73900.3,0.19,-4.05,-4.09,0,*43
1496858478.76,29527,18.94,73894.0,0.19,-3.83,-4.09,0,*4B
1496858479.94,29528,19.0,73900.3,0.19,-4.17,-4.17,0,*41
1496858481.12,29529,19.0,73896.3,0.19,-4.17,-4.17,0,*40
1496858482.3,29530,19.0,73896.8,0.19,-4.05,-4.17,0,*4B
1496858483.51,29531,19.0,73896.3,0.17,-4.13,-4.21,0,*46
1496858484.72,29532,19.0,73898.0,0.17,-4.09,-4.13,0,*4F
1496858485.93,29533,19.0,73896.8,0.17,-4.25,-4.37,0,*46
1496858487.14,29534,19.0,73892.3,0.17,-4.33,-4.37,0,*46
1496858488.35,29535,19.0,73894.0,0.17,-4.25,-4.33,0,*44
1496858489.54,29536,19.0,73898.5,0.15,-4.25,-4.25,0,*42
1496858490.75,29537,19.0,73902.0,0.17,-4.13,-4.25,0,*44
1496858491.96,29538,19.0,73898.0,0.17,-4.13,-4.21,0,*4F
1496858493.17,29539,19.0,73894.8,0.17,-4.13,-4.25,0,*4A
1496858494.38,29540,19.0,73894.5,0.17,-4.13,-4.21,0,*40
1496858495.62,29541,19.0,73898.5,0.17,-4.01,-4.13,0,*43
1496858496.86,29542,19.0,73896.3,0.17,-4.01,-4.09,0,*4B
1496858498.06,29543,19.0,73898.5,0.17,-3.87,-3.95,0,*41
1496858499.29,29544,19.0,73898.0,0.17,-3.87,-4.01,0,*4C
1496858500.49,29545,19.0,73894.0,0.19,-3.83,-3.95,0,*4D
1496858501.68,29546,19.0,73892.0,0.19,-3.83,-3.91,0,*4A
1496858502.88,29547,19.0,73896.0,0.19,-3.83,-3.91,0,*4B
1496858504.07,29548,19.0,73900.3,0.19,-3.83,-3.95,0,*40
1496858505.26,29549,19.0,73894.5,0.19,-3.83,-3.95,0,*41
1496858506.45,29550,19.0,73898.3,0.19,-3.83,-3.91,0,*4D
1496858507.67,29551,19.0,73896.8,0.21,-3.91,-4.09,0,*42
1496858508.86,29552,19.0,73892.0,0.19,-3.91,-3.95,0,*48
1496858510.07,29553,19.0,73894.5,0.21,-3.83,-3.95,0,*41
1496858511.27,29554,19.0,73896.3,0.19,-3.91,-3.95,0,*4E
1496858512.48,29555,19.0,73896.0,0.21,-3.91,-3.95,0,*44
1496858513.68,29556,19.0,73898.8,0.19,-3.91,-4.05,0,*42
1496858514.89,29557,19.0,73894.5,0.21,-4.09,-4.21,0,*48
1496858516.1,29558,19.0,73896.0,0.21,-4.05,-4.17,0,*4E
1496858517.31,29559,19.0,73900.3,0.21,-3.91,-4.05,0,*46
1496858518.5,29560,19.0,73896.5,0.19,-3.95,-4.05,0,*43
1496858519.69,29561,19.0,73896.3,0.19,-3.95,-4.05,0,*42
1496858520.89,29562,19.0,73898.0,0.19,-3.91,-4.05,0,*45
1496858522.08,29563,19.0,73896.8,0.19,-3.83,-4.05,0,*47
1496858523.27,29564,19.0,73896.5,0.19,-3.91,-3.91,0,*49
1496858524.47,29565,19.0,73896.3,0.19,-3.91,-4.09,0,*4E
1496858525.66,29566,19.0,73900.5,0.19,-3.83,-4.05,0,*42
1496858526.85,29567,19.0,73902.0,0.19,-3.79,-3.91,0,*4C
1496858528.04,29568,19.0,73900.0,0.19,-3.83,-3.95,0,*42
1496858529.24,29569,19.0,73900.0,0.19,-3.95,-4.05,0,*4A
1496858530.45,29570,19.0,73902.5,0.21,-3.83,-3.95,0,*40
1496858531.64,29571,19.0,73902.0,0.19,-3.83,-3.91,0,*4E
1496858532.84,29572,19.0,73900.5,0.19,-3.79,-3.91,0,*48
1496858534.05,29573,19.0,73896.8,0.21,-3.79,-3.95,0,*46
1496858535.27,29574,19.0,73896.5,0.21,-3.79,-3.95,0,*41
1496858536.46,29575,19.0,73902.3,0.19,-3.79,-3.91,0,*4F
1496858537.66,29576,19.0,73900.3,0.23,-3.75,-3.79,0,*4F
1496858538.88,29577,19.0,73900.5,0.21,-3.79,-3.91,0,*46
1496858540.1,29578,19.0,73902.8,0.21,-3.75,-3.91,0,*45
1496858541.29,29579,18.94,73898.5,0.19,-3.79,-3.91,0,*43
1496858542.48,29580,18.94,73896.5,0.19,-3.75,-3.79,0,*4F
1496858543.7,29581,19.0,73898.8,0.23,-3.63,-3.79,0,*40
1496858544.89,29582,18.94,73896.8,0.23,-3.75,-3.87,0,*45
1496858546.1,29583,18.94,73900.0,0.21,-3.79,-3.95,0,*49
1496858547.32,29584,19.0,73900.3,0.21,-3.75,-3.95,0,*42
1496858548.54,29585,19.0,73900.5,0.21,-3.79,-4.05,0,*41
1496858549.75,29586,18.94,73898.3,0.21,-3.83,-3.95,0,*49
1496858550.97,29587,19.0,73896.8,0.21,-3.79,-3.91,0,*49
1496858552.19,29588,19.0,73900.3,0.21,-3.79,-3.91,0,*46
1496858553.4,29589,18.94,73896.8,0.21,-3.83,-4.05,0,*48
1496858554.62,29590,18.94,73898.0,0.21,-3.91,-4.05,0,*43
1496858555.84,29591,18.94,73898.8,0.21,-3.91,-4.09,0,*4E
1496858557.05,29592,18.94,73896.5,0.21,-3.83,-3.91,0,*48
1496858558.27,29593,19.0,73904.5,0.21,-3.91,-3.95,0,*4E
1496858559.45,29594,19.0,73898.8,0.23,-3.87,-3.87,0,*4F
1496858560.68,29595,19.0,73902.3,0.19,-3.63,-3.67,0,*43
1496858561.94,29596,19.0,73900.5,0.21,-3.51,-3.55,0,*4B
1496858563.19,29597,19.0,73896.5,0.21,-3.51,-3.63,0,*4F
1496858564.42,29598,19.0,73896.5,0.21,-3.55,-3.75,0,*43
1496858565.61,29599,19.0,73900.0,0.19,-3.79,-3.95,0,*49
1496858566.83,29600,19.0,73902.8,0.21,-3.91,-3.95,0,*47
1496858568.04,29601,18.94,73900.0,0.21,-3.79,-4.05,0,*4E
1496858569.26,29602,18.94,73898.0,0.23,-3.59,-3.75,0,*4D
1496858570.49,29603,19.0,73898.0,0.27,-3.55,-3.67,0,*47
1496858571.72,29604,19.0,73898.3,0.23,-3.59,-3.71,0,*4F
1496858572.94,29605,18.94,73902.0,0.23,-3.63,-3.71,0,*47
1496858574.16,29606,19.0,73902.3,0.23,-3.63,-3.79,0,*4C
1496858575.35,29607,18.94,73900.0,0.23,-3.79,-3.91,0,*40
1496858576.55,29608,19.0,73902.5,0.23,-3.75,-3.79,0,*45
1496858577.78,29609,19.0,73900.0,0.27,-3.59,-3.67,0,*41
1496858579.0,29610,18.94,73898.5,0.27,-3.55,-3.71,0,*42
1496858580.24,29611,18.94,73900.0,0.27,-3.55,-3.59,0,*49
1496858581.47,29612,18.94,73898.5,0.27,-3.55,-3.59,0,*4A
1496858582.7,29613,19.0,73900.3,0.23,-3.51,-3.63,0,*42
1496858583.93,29614,19.0,73900.5,0.27,-3.47,-3.59,0,*4F
1496858585.16,29615,19.0,73902.8,0.23,-3.51,-3.63,0,*44
1496858586.4,29616,18.94,73896.0,0.23,-3.51,-3.59,0,*4E
1496858587.63,29617,19.0,73902.5,0.27,-3.47,-3.71,0,*46
1496858588.86,29618,18.94,73896.0,0.27,-3.59,-3.67,0,*41
1496858590.09,29619,19.0,73902.0,0.23,-3.63,-3.71,0,*4A
1496858591.31,29620,18.94,73900.5,0.27,-3.67,-3.71,0,*40
1496858592.54,29621,18.94,73898.5,0.27,-3.59,-3.67,0,*4B
1496858593.75,29622,18.94,73900.8,0.27,-3.67,-3.75,0,*46
1496858594.96,29623,18.94,73898.0,0.27,-3.71,-3.83,0,*49
1496858596.17,29624,18.94,73898.0,0.27,-3.71,-3.83,0,*4E
1496858597.36,29625,18.94,73900.0,0.27,-3.75,-3.83,0,*4B
1496858598.55,29626,18.94,73898.0,0.27,-3.75,-3.83,0,*48
1496858599.74,29627,19.0,73898.8,0.27,-3.75,-3.83,0,*49
1496858600.93,29628,18.94,73898.3,0.27,-3.75,-3.87,0,*42
1496858602.14,29629,19.0,73902.0,0.27,-3.71,-3.87,0,*47
1496858603.35,29630,18.94,73898.5,0.27,-3.71,-3.95,0,*4C
1496858604.55,29631,18.94,73896.3,0.27,-3.67,-3.83,0,*4D
1496858605.78,29632,19.0,73898.0,0.27,-3.59,-3.71,0,*4E
1496858606.99,29633,18.94,73898.3,0.27,-3.71,-3.83,0,*48
1496858608.2,29634,18.94,73896.8,0.27,-3.71,-3.83,0,*4F
1496858609.4,29635,18.94,73898.0,0.27,-3.67,-3.83,0,*49
1496858610.63,29636,18.94,73898.0,0.27,-3.67,-3.71,0,*47
1496858611.86,29637,18.94,73898.0,0.27,-3.71,-3.67,0,*46
1496858613.07,29638,18.94,73898.3,0.27,-3.59,-3.75,0,*40
1496858614.32,29639,19.0,73898.5,0.29,-3.67,-3.71,0,*46
1496858615.57,29640,18.94,73898.0,0.29,-3.55,-3.71,0,*49
1496858616.79,29641,19.0,73898.0,0.27,-3.55,-3.67,0,*41
1496858618.02,29642,19.0,73898.0,0.27,-3.47,-3.67,0,*41
1496858619.23,29643,18.94,73894.3,0.27,-3.67,-3.75,0,*41
1496858620.47,29644,18.94,73898.3,0.29,-3.67,-3.83,0,*41
1496858621.7,29645,18.94,73896.0,0.29,-3.59,-3.75,0,*44
1496858622.95,29646,18.94,73898.0,0.29,-3.67,-3.71,0,*4E
1496858624.19,29647,18.94,73896.8,0.29,-3.67,-3.75,0,*4B
1496858625.42,29648,19.0,73898.5,0.29,-3.67,-3.75,0,*44
1496858626.67,29649,18.94,73896.8,0.29,-3.59,-3.71,0,*4C
1496858627.91,29650,18.94,73896.8,0.29,-3.67,-3.75,0,*4D
1496858629.14,29651,18.94,73898.3,0.29,-3.71,-3.83,0,*42
1496858630.37,29652,18.94,73900.8,0.29,-3.71,-3.87,0,*45
1496858631.6,29653,18.94,73900.8,0.29,-3.71,-3.83,0,*40
1496858632.83,29654,18.94,73898.8,0.29,-3.71,-3.83,0,*47
1496858634.06,29655,18.94,73900.3,0.29,-3.71,-3.83,0,*46
1496858635.29,29656,18.94,73902.0,0.29,-3.71,-3.83,0,*45
1496858636.52,29657,18.94,73900.8,0.29,-3.67,-3.83,0,*43
1496858637.75,29658,18.94,73902.5,0.29,-3.71,-3.83,0,*4B
1496858638.98,29659,18.94,73896.5,0.29,-3.67,-3.83,0,*4D
1496858640.19,29660,18.94,73900.3,0.31,-3.63,-3.79,0,*4F
1496858641.42,29661,18.94,73902.5,0.29,-3.71,-3.87,0,*45
1496858642.65,29662,18.94,73902.5,0.31,-3.63,-3.67,0,*42
1496858643.87,29663,19.0,73904.8,0.31,-3.67,-3.71,0,*40
1496858645.11,29664,19.0,73904.8,0.29,-3.67,-3.75,0,*4A
1496858646.34,29665,18.94,73902.5,0.29,-3.59,-3.75,0,*46
1496858647.58,29666,18.94,73904.3,0.29,-3.59,-3.75,0,*45
1496858648.83,29667,18.94,73900.0,0.29,-3.59,-3.71,0,*40
1496858650.09,29668,18.94,73902.8,0.29,-3.59,-3.71,0,*4F
1496858651.34,29669,18.94,73904.5,0.29,-3.55,-3.71,0,*42
1496858652.6,29670,18.94,73902.8,0.29,-3.47,-3.59,0,*43
1496858653.82,29671,18.94,73900.8,0.31,-3.51,-3.63,0,*45
1496858655.07,29672,18.94,73900.0,0.29,-3.55,-3.67,0,*4F
1496858656.31,29673,18.94,73902.5,0.29,-3.59,-3.75,0,*41
1496858657.54,29674,18.94,73902.5,0.29,-3.71,-3.75,0,*4C
1496858658.79,29675,18.94,73902.0,0.29,-3.67,-3.67,0,*49
1496858660.04,29676,18.94,73900.0,0.29,-3.55,-3.71,0,*4C
1496858661.27,29677,18.94,73898.3,0.31,-3.43,-3.63,0,*40
1496858662.49,29678,18.94,73896.3,0.31,-3.47,-3.55,0,*4E
1496858663.74,29679,18.94,73900.5,0.29,-3.43,-3.67,0,*43
1496858665.0,29680,18.94,73900.0,0.29,-3.47,-3.55,0,*40
1496858666.22,29681,18.94,73902.5,0.31,-3.43,-3.63,0,*49
1496858667.45,29682,18.94,73896.3,0.31,-3.51,-3.63,0,*49
1496858668.7,29683,18.94,73898.5,0.29,-3.47,-3.59,0,*4F
1496858669.93,29684,18.94,73900.5,0.31,-3.43,-3.63,0,*4C
1496858671.15,29685,18.94,73898.5,0.31,-3.43,-3.55,0,*48
1496858672.41,29686,18.94,73900.0,0.29,-3.47,-3.67,0,*47
1496858673.63,29687,18.94,73898.8,0.31,-3.43,-3.63,0,*4F
1496858674.85,29688,18.94,73896.3,0.31,-3.43,-3.55,0,*45
1496858676.1,29689,18.94,73898.5,0.33,-3.43,-3.55,0,*46
1496858677.35,29690,18.94,73900.3,0.33,-3.43,-3.55,0,*4E
1496858678.55,29691,18.94,73896.3,0.35,-3.39,-3.67,0,*45
1496858679.8,29692,18.94,73896.5,0.33,-3.43,-3.55,0,*4C
1496858681.04,29693,18.94,73898.8,0.33,-3.43,-3.55,0,*4D
1496858682.29,29694,18.94,73896.5,0.33,-3.43,-3.63,0,*4F
1496858683.52,29695,18.94,73902.0,0.33,-3.39,-3.63,0,*43
1496858684.74,29696,18.94,73902.5,0.31,-3.51,-3.67,0,*48
1496858685.97,29697,18.94,73898.5,0.31,-3.43,-3.67,0,*4A
1496858687.21,29698,18.94,73902.0,0.33,-3.43,-3.71,0,*40
1496858688.46,29699,18.94,73900.5,0.33,-3.43,-3.67,0,*46
1496858689.69,29700,18.94,73900.3,0.31,-3.43,-3.63,0,*41
1496858690.91,29701,18.94,73902.5,0.33,-3.39,-3.63,0,*4F
1496858692.16,29702,18.94,73900.0,0.33,-3.43,-3.63,0,*41
1496858693.41,29703,18.94,73904.3,0.33,-3.43,-3.67,0,*44
1496858694.63,29704,18.94,73902.8,0.33,-3.39,-3.67,0,*4E
1496858695.88,29705,18.94,73900.3,0.33,-3.51,-3.67,0,*41
1496858697.11,29706,18.94,73898.5,0.33,-3.39,-3.67,0,*4C
1496858698.33,29707,18.94,73900.5,0.33,-3.39,-3.67,0,*4D
1496858699.58,29708,18.94,73904.0,0.33,-3.43,-3.71,0,*48
1496858700.82,29709,18.94,73900.5,0.33,-3.43,-3.63,0,*4A
1496858702.07,29710,18.94,73900.8,0.33,-3.43,-3.71,0,*41
1496858703.32,29711,18.94,73896.8,0.33,-3.43,-3.67,0,*47
1496858704.57,29712,18.94,73896.5,0.33,-3.51,-3.67,0,*47
1496858705.82,29713,18.94,73896.8,0.33,-3.51,-3.71,0,*41
1496858707.02,29714,18.94,73894.5,0.35,-3.39,-3.67,0,*49
1496858708.27,29715,18.94,73898.5,0.33,-3.43,-3.67,0,*43
1496858709.49,29716,18.94,73900.3,0.33,-3.39,-3.63,0,*49
1496858710.74,29717,18.94,73902.0,0.33,-3.43,-3.71,0,*46
1496858711.99,29718,18.94,73902.3,0.33,-3.43,-3.67,0,*4E
1496858713.24,29719,18.94,73896.5,0.33,-3.43,-3.67,0,*4F
1496858714.48,29720,19.0,73906.8,0.33,-3.43,-3.71,0,*42
1496858715.71,29721,18.94,73902.3,0.35,-3.47,-3.63,0,*42
1496858716.96,29722,18.94,73902.3,0.33,-3.43,-3.71,0,*40
1496858718.21,29723,18.94,73900.3,0.33,-3.43,-3.67,0,*46
1496858719.45,29724,18.94,73900.5,0.33,-3.43,-3.71,0,*46
1496858720.7,29725,18.94,73900.3,0.33,-3.51,-3.71,0,*44
1496858721.93,29726,18.94,73902.3,0.33,-3.51,-3.79,0,*4F
1496858723.15,29727,18.94,73902.3,0.35,-3.51,-3.75,0,*44
1496858724.36,29728,18.94,73904.0,0.35,-3.51,-3.75,0,*4B
1496858725.59,29729,18.94,73902.8,0.33,-3.55,-3.79,0,*44
1496858726.8,29730,18.94,73900.0,0.35,-3.51,-3.79,0,*4E
1496858728.02,29731,18.94,73900.5,0.35,-3.51,-3.75,0,*43
1496858729.2,29732,18.94,73896.8,0.35,-3.39,-3.75,0,*4E
1496858730.44,29733,18.94,73900.5,0.33,-3.51,-3.79,0,*4B
1496858731.65,29734,18.94,73904.8,0.35,-3.47,-3.79,0,*4D
1496858732.88,29735,18.94,73906.3,0.33,-3.55,-3.87,0,*48
1496858734.11,29736,18.94,73902.8,0.33,-3.51,-3.83,0,*4B
1496858735.33,29737,18.94,73904.5,0.33,-3.51,-3.83,0,*4A
1496858736.55,29738,18.94,73904.8,0.35,-3.47,-3.79,0,*41
1496858737.78,29739,18.94,73904.0,0.33,-3.43,-3.79,0,*42
1496858739.01,29740,18.94,73906.5,0.33,-3.43,-3.79,0,*4C
1496858740.22,29741,18.94,73900.0,0.35,-3.47,-3.75,0,*43
1496858741.45,29742,18.94,73904.3,0.33,-3.55,-3.83,0,*4C
1496858742.66,29743,18.94,73906.3,0.35,-3.47,-3.79,0,*4D
1496858743.89,29744,18.94,73906.0,0.33,-3.55,-3.79,0,*4F
1496858745.12,29745,18.94,73904.5,0.33,-3.55,-3.91,0,*48
1496858746.35,29746,18.94,73904.0,0.33,-3.55,-3.95,0,*4F
1496858747.57,29747,18.94,73904.8,0.33,-3.55,-3.95,0,*4E
1496858748.8,29748,18.94,73904.5,0.33,-3.55,-3.91,0,*45
1496858750.03,29749,18.94,73904.5,0.33,-3.55,-3.83,0,*47
1496858751.25,29750,18.94,73900.5,0.35,-3.59,-3.91,0,*46
1496858752.46,29751,18.94,73902.0,0.35,-3.59,-3.87,0,*40
1496858753.67,29752,18.94,73900.5,0.35,-3.63,-3.91,0,*4D
1496858754.9,29753,18.94,73902.5,0.33,-3.63,-3.83,0,*49
1496858756.11,29754,18.94,73900.8,0.35,-3.59,-3.87,0,*45
1496858757.34,29755,18.94,73902.0,0.33,-3.63,-3.79,0,*4A
1496858758.56,29756,18.94,73900.5,0.35,-3.51,-3.79,0,*4E
1496858759.79,29757,18.94,73900.3,0.37,-3.59,-3.87,0,*44
1496858761.02,29758,18.94,73902.8,0.33,-3.63,-3.91,0,*41
1496858762.25,29759,18.94,73902.8,0.33,-3.51,-3.91,0,*41
1496858763.49,29760,18.94,73898.8,0.33,-3.51,-3.91,0,*4B
1496858764.7,29761,18.94,73902.0,0.35,-3.47,-3.79,0,*4D
1496858765.91,29762,18.94,73902.5,0.35,-3.47,-3.87,0,*4F
1496858767.14,29763,18.94,73904.0,0.33,-3.43,-3.95,0,*4F
1496858768.35,29764,18.94,73904.0,0.35,-3.47,-3.91,0,*4E
1496858769.58,29765,18.94,73902.5,0.33,-3.51,-3.95,0,*4A
1496858770.81,29766,18.94,73902.0,0.33,-3.51,-3.95,0,*49
1496858772.02,29767,18.94,73906.5,0.35,-3.47,-3.91,0,*4D
1496858773.26,29768,18.94,73900.0,0.33,-3.51,-3.91,0,*43
1496858774.49,29769,18.94,73904.5,0.33,-3.55,-3.95,0,*42
1496858775.72,29770,18.94,73906.5,0.33,-3.63,-3.95,0,*4F
1496858776.95,29771,18.94,73904.0,0.33,-3.63,-4.05,0,*40
1496858778.18,29772,18.94,73908.8,0.33,-3.63,-4.09,0,*4F
1496858779.41,29773,18.94,73902.8,0.33,-3.63,-4.05,0,*42
1496858780.62,29774,18.94,73904.0,0.35,-3.59,-4.05,0,*4A
1496858781.86,29775,18.94,73900.3,0.37,-3.59,-4.13,0,*4E
1496858783.07,29776,18.94,73902.0,0.35,-3.59,-4.05,0,*48
1496858784.31,29777,18.94,73900.8,0.35,-3.47,-4.01,0,*42
1496858785.54,29778,18.94,73906.5,0.33,-3.55,-4.09,0,*40
1496858786.77,29779,18.94,73906.8,0.35,-3.47,-4.01,0,*4C
1496858787.99,29780,18.94,73904.3,0.35,-3.47,-3.91,0,*44
1496858789.22,29781,18.94,73902.3,0.35,-3.51,-4.01,0,*4C
1496858790.43,29782,18.94,73904.3,0.35,-3.51,-4.05,0,*4B
1496858791.65,29783,18.94,73902.0,0.35,-3.59,-4.05,0,*42
1496858792.86,29784,18.94,73900.3,0.35,-3.59,-4.05,0,*45
1496858794.09,29785,18.94,73904.8,0.33,-3.63,-4.17,0,*48
1496858795.3,29786,18.94,73904.3,0.35,-3.67,-4.13,0,*4D
1496858796.5,29787,18.94,73896.5,0.35,-3.67,-4.17,0,*48
1496858797.72,29788,18.94,73898.0,0.35,-3.59,-4.13,0,*4E
1496858798.92,29789,18.94,73898.8,0.35,-3.63,-4.17,0,*42
1496858800.13,29790,18.94,73902.3,0.35,-3.63,-4.17,0,*4A
1496858801.35,29791,18.94,73900.8,0.35,-3.63,-4.13,0,*4F
1496858802.57,29792,18.94,73900.3,0.33,-3.67,-4.17,0,*4A
1496858803.79,29793,18.94,73902.8,0.33,-3.79,-4.21,0,*41
1496858804.98,29794,18.94,73900.0,0.35,-3.79,-4.17,0,*45
1496858806.2,29795,18.94,73906.8,0.33,-3.79,-4.21,0,*47
1496858807.41,29796,18.94,73902.5,0.33,-3.79,-4.17,0,*41
1496858808.62,29797,18.94,73906.0,0.33,-3.79,-4.17,0,*40
1496858809.83,29798,18.94,73906.0,0.35,-3.67,-4.13,0,*42
1496858811.05,29799,18.94,73900.5,0.33,-3.79,-4.21,0,*4B
1496858812.27,29800,18.94,73904.8,0.33,-3.91,-4.21,0,*42
1496858813.46,29801,18.94,73900.3,0.35,-3.75,-4.17,0,*4A
1496858814.68,29802,18.94,73904.8,0.33,-3.79,-4.21,0,*46
1496858815.87,29803,18.94,73906.5,0.35,-3.75,-4.13,0,*4C
1496858817.08,29804,18.94,73904.8,0.35,-3.67,-4.17,0,*4C
1496858818.26,29805,18.94,73904.5,0.35,-3.75,-4.17,0,*4E
1496858819.5,29806,18.94,73902.5,0.33,-3.71,-4.21,0,*4A
1496858820.74,29807,18.94,73902.5,0.33,-3.67,-4.21,0,*4C
1496858821.94,29808,18.94,73900.8,0.33,-3.79,-4.17,0,*49
1496858823.16,29809,18.94,73902.5,0.35,-3.63,-4.13,0,*41
1496858824.39,29810,18.94,73900.0,0.33,-3.67,-4.21,0,*4A
1496858825.61,29811,18.94,73900.8,0.33,-3.79,-4.33,0,*47
1496858826.82,29812,18.94,73906.3,0.33,-3.83,-4.29,0,*4A
1496858828.04,29813,18.94,73896.8,0.33,-3.91,-4.33,0,*43
1496858829.25,29814,18.94,73902.0,0.33,-3.79,-4.33,0,*42
1496858830.46,29815,18.94,73906.3,0.33,-3.79,-4.29,0,*48
1496858831.68,29816,18.94,73902.3,0.35,-3.67,-4.25,0,*4E
1496858832.91,29817,18.94,73896.5,0.33,-3.67,-4.21,0,*4D
1496858834.15,29818,18.94,73900.3,0.33,-3.67,-4.21,0,*42
1496858835.37,29819,18.94,73900.0,0.33,-3.67,-4.17,0,*46
1496858836.61,29820,18.94,73900.5,0.33,-3.67,-4.21,0,*49
1496858837.81,29821,18.94,73902.0,0.35,-3.67,-4.17,0,*4B
1496858839.05,29822,18.94,73902.3,0.33,-3.71,-4.21,0,*4C
1496858840.28,29823,18.94,73906.8,0.33,-3.71,-4.21,0,*4D
1496858841.52,29824,18.94,73902.5,0.33,-3.71,-4.29,0,*42
1496858842.73,29825,18.94,73900.3,0.33,-3.79,-4.29,0,*4B
1496858843.95,29826,18.94,73906.5,0.33,-3.79,-4.29,0,*48
1496858845.16,29827,18.94,73900.5,0.33,-3.79,-4.29,0,*49
1496858846.38,29828,18.94,73904.8,0.33,-3.79,-4.29,0,*46
1496858847.61,29829,18.94,73902.5,0.33,-3.71,-4.33,0,*44
1496858848.8,29830,18.94,73902.3,0.35,-3.75,-4.29,0,*45
1496858850.02,29831,18.94,73902.8,0.37,-3.75,-4.29,0,*46
1496858851.23,29832,18.94,73904.0,0.33,-3.79,-4.33,0,*46
1496858852.43,29833,18.94,73902.5,0.35,-3.79,-4.37,0,*45
1496858853.61,29834,18.94,73900.8,0.35,-3.87,-4.41,0,*42
1496858854.8,29835,18.94,73902.5,0.35,-4.05,-4.57,0,*49
1496858855.99,29836,18.94,73900.5,0.35,-4.05,-4.49,0,*45
1496858857.18,29837,18.94,73900.8,0.35,-4.05,-4.53,0,*4F
1496858858.38,29838,18.94,73898.0,0.33,-4.09,-4.57,0,*4E
1496858859.59,29839,18.94,73900.0,0.33,-4.05,-4.45,0,*40
1496858860.78,29840,18.94,73900.5,0.35,-3.91,-4.41,0,*46
1496858861.97,29841,18.94,73902.8,0.35,-3.87,-4.41,0,*40
1496858863.18,29842,18.94,73900.0,0.33,-3.91,-4.45,0,*46
1496858864.37,29843,18.94,73904.0,0.35,-4.05,-4.53,0,*4C
1496858865.58,29844,18.94,73904.0,0.33,-4.09,-4.57,0,*45
1496858866.78,29845,18.94,73902.5,0.33,-4.05,-4.49,0,*47
1496858867.99,29846,18.94,73900.0,0.33,-3.95,-4.41,0,*42
1496858869.18,29847,18.94,73900.5,0.35,-3.87,-4.29,0,*48
1496858870.38,29848,18.94,73898.0,0.35,-3.79,-4.25,0,*4A
1496858871.59,29849,18.94,73900.0,0.35,-3.67,-4.25,0,*44
1496858872.78,29850,18.94,73904.0,0.35,-3.75,-4.29,0,*43
1496858874.0,29851,18.94,73900.3,0.33,-3.91,-4.33,0,*45
1496858875.21,29852,18.94,73904.5,0.33,-3.91,-4.41,0,*43
1496858876.4,29853,18.94,73900.8,0.35,-3.87,-4.37,0,*42
1496858877.62,29854,18.94,73900.8,0.33,-3.91,-4.41,0,*45
1496858878.82,29855,18.94,73904.0,0.33,-4.05,-4.41,0,*4E
1496858880.03,29856,18.94,73902.3,0.33,-3.95,-4.41,0,*43
1496858881.23,29857,18.94,73900.5,0.35,-3.79,-4.29,0,*48
1496858882.43,29858,18.94,73902.5,0.35,-3.91,-4.37,0,*4E
1496858883.61,29859,18.94,73906.8,0.35,-3.87,-4.41,0,*49
1496858884.81,29860,18.94,73900.3,0.35,-3.79,-4.25,0,*40
1496858886.03,29861,18.94,73902.5,0.33,-3.91,-4.29,0,*4D
1496858887.24,29862,18.94,73900.3,0.33,-3.91,-4.29,0,*4E
1496858888.45,29863,18.94,73900.3,0.33,-4.05,-4.41,0,*4B
1496858889.65,29864,18.94,73904.0,0.33,-4.05,-4.49,0,*44
1496858890.84,29865,18.94,73900.0,0.35,-3.95,-4.45,0,*41
1496858892.05,29866,18.94,73900.8,0.35,-4.01,-4.45,0,*48
1496858893.28,29867,18.94,73902.8,0.33,-4.17,-4.69,0,*46
1496858894.49,29868,18.94,73904.3,0.33,-4.09,-4.61,0,*4E
1496858895.7,29869,18.94,73902.3,0.33,-3.91,-4.41,0,*4B
1496858896.92,29870,18.94,73902.0,0.33,-3.91,-4.49,0,*4B
1496858898.12,29871,18.94,73900.3,0.35,-3.91,-4.53,0,*47
1496858899.35,29872,18.88,73896.8,0.33,-4.05,-4.69,0,*41
1496858900.56,29873,18.94,73896.5,0.33,-4.05,-4.57,0,*4D
1496858901.77,29874,18.94,73902.0,0.33,-4.17,-4.57,0,*49
1496858902.97,29875,18.94,73904.3,0.33,-4.17,-4.57,0,*48
1496858904.16,29876,18.94,73904.0,0.31,-4.17,-4.61,0,*4C
1496858905.34,29877,18.94,73904.0,0.31,-4.17,-4.61,0,*4D
1496858906.55,29878,18.94,73898.3,0.29,-4.13,-4.61,0,*4F
1496858907.76,29879,18.94,73898.5,0.33,-4.09,-4.57,0,*4B
1496858908.97,29880,18.94,73900.3,0.31,-4.17,-4.69,0,*4D
1496858910.18,29881,18.94,73898.0,0.31,-4.29,-4.73,0,*4A
1496858911.4,29882,18.94,73900.5,0.31,-4.21,-4.81,0,*4C
1496858912.61,29883,18.94,73902.8,0.31,-4.21,-4.73,0,*40
1496858913.82,29884,18.88,73898.3,0.33,-4.09,-4.57,0,*49
1496858915.0,29885,18.94,73902.8,0.31,-4.17,-4.61,0,*40
1496858916.19,29886,18.94,73902.0,0.31,-4.17,-4.61,0,*43